Flag for U.S.A. Weather past 2 weeks in Omaha, Nebraska, U.S.A.

Now
68 °F

Clear.


Feels Like: 68 °F
Forecast: 57 / 76 °F
Wind: 5 mph from Southeast

Location: Millard Airport

Current Time: May 28, 2015 at 11:31:37 PM

Latest Report: May 28, 2015 at 10:15 PM


Visibility: 10 mi

Pressure: 29.94 "Hg

Humidity: 90%

Dew point: 64 °F

Location of OmahaLocation

Historic Weather in Omaha — Graph

°F

Omaha temperature yesterday

Maximum temperature yesterday: 83 °F (at 5:15 PM)
Minimum temperature yesterday: 52 °F (at 5:55 AM)
Average temperature yesterday: 68 °F

Past Weeks' High & Low Weather Summary

 TemperatureHumidityPressure
High83 °F (May 27, 5:15 PM)98% (May 15, 3:15 AM)30.40 "Hg (May 15, 3:15 AM)
Low37 °F (May 21, 5:15 AM)30% (May 27, 2:55 PM)29.60 "Hg (May 17, 3:15 AM)
Average61 °F76%30.01 "Hg
* Reported May 13 9:15 PM — May 28 9:55 PM, Omaha, Weather by CustomWeather, © 2015

Note: Actual official high and low records may vary slightly from our data, if they occured in-between our weather recording intervals... More about our weather records

Advertising

Omaha weather history for previous 24 hours

 ConditionsComfort  
Time TempWeatherWind HumidityBarometerVisibility
9:55 PM
Thu, May 28
68 °FClear.7 mph90%29.94 "Hg10 mi
9:35 PM69 °FScattered clouds.6 mph87%29.94 "Hg10 mi
9:15 PM70 °FMore clouds than sun.6 mph84%29.94 "Hg10 mi
8:55 PM70 °FPartly sunny.8 mph84%29.93 "Hg10 mi
8:35 PM70 °FSunny.8 mph84%29.92 "Hg10 mi
8:15 PM70 °FScattered clouds.9 mph83%29.92 "Hg10 mi
7:55 PM71 °FScattered clouds.9 mph81%29.90 "Hg10 mi
7:15 PM73 °FPartly sunny.14 mph75%29.92 "Hg10 mi
6:55 PM73 °FPartly sunny.10 mph74%29.91 "Hg10 mi
6:15 PM74 °FScattered clouds.9 mph71%29.91 "Hg10 mi
4:55 PM72 °FMostly cloudy.10 mph79%29.95 "Hg10 mi
4:15 PM71 °FScattered clouds.8 mph83%29.98 "Hg10 mi
3:55 PM70 °FLight rain. Partly sunny.12 mph83%30.00 "Hg10 mi
3:35 PM70 °FLight rain. Broken clouds.9 mph83%30.00 "Hg10 mi
3:15 PM70 °FLight rain. Mostly cloudy.8 mph83%30.01 "Hg10 mi
2:55 PM70 °FLight rain. Cloudy.7 mph83%30.02 "Hg10 mi
2:35 PM70 °FLight rain. More clouds than sun.3 mph85%30.02 "Hg10 mi
2:15 PM70 °FLight rain. Cloudy.6 mph83%30.03 "Hg10 mi
1:55 PM70 °FLight rain. Cloudy.9 mph79%30.03 "Hg10 mi
1:35 PM71 °FLight rain. Broken clouds.7 mph77%30.03 "Hg10 mi
1:15 PM71 °FScattered clouds.8 mph76%30.03 "Hg10 mi
12:55 PM71 °FScattered clouds.10 mph74%30.03 "Hg10 mi
12:35 PM70 °FLight rain. Scattered clouds.9 mph75%30.03 "Hg10 mi
12:10 PM70 °FScattered clouds.10 mph76%30.03 "Hg10 mi
11:55 AM69 °FScattered clouds.8 mph77%30.04 "Hg10 mi
11:35 AM69 °FScattered clouds.7 mph76%30.03 "Hg10 mi
11:15 AM69 °FSunny.5 mph78%30.02 "Hg10 mi
10:55 AM68 °FSunny.6 mph80%30.01 "Hg10 mi
10:15 AM68 °FBroken clouds.7 mph80%30.03 "Hg10 mi
9:55 AM68 °FPartly sunny.6 mph80%30.03 "Hg10 mi
9:35 AM67 °FSunny.5 mph81%30.04 "Hg10 mi
9:15 AM67 °FSunny.8 mph77%30.05 "Hg10 mi
8:55 AM67 °FSunny.8 mph75%30.06 "Hg10 mi
8:35 AM66 °FSunny.3 mph76%30.06 "Hg10 mi
8:15 AM65 °FSunny.3 mph76%30.07 "Hg10 mi
7:55 AM65 °FSunny.5 mph76%30.07 "Hg10 mi
7:35 AM64 °FPartly sunny.5 mph77%30.09 "Hg10 mi
7:15 AM62 °FPartly sunny.3 mph81%30.09 "Hg10 mi
6:55 AM60 °FPassing clouds.No wind86%30.07 "Hg10 mi
6:35 AM59 °FClear.No wind87%30.06 "Hg10 mi
6:15 AM59 °FClear.No wind87%30.06 "Hg10 mi
5:55 AM59 °FClear.No wind88%30.06 "Hg10 mi
5:15 AM60 °FClear.No wind84%30.05 "Hg10 mi
4:55 AM60 °FClear.No wind85%30.04 "Hg10 mi
4:15 AM59 °FClear.No wind85%30.04 "Hg10 mi
3:55 AM60 °FClear.No wind83%30.04 "Hg10 mi
3:35 AM60 °FClear.No wind83%30.05 "Hg10 mi
3:15 AM58 °FClear.No wind89%30.06 "Hg10 mi
2:55 AM58 °FClear.No wind86%30.05 "Hg10 mi
2:15 AM59 °FClear.No wind87%30.06 "Hg10 mi
1:55 AM59 °FClear.No wind84%30.07 "Hg10 mi
1:35 AM60 °FClear.No wind80%30.07 "Hg10 mi
1:15 AM61 °FClear.No wind78%30.08 "Hg10 mi
12:55 AM61 °FClear.No wind79%30.07 "Hg10 mi
12:35 AM62 °FClear.No wind77%30.08 "Hg10 mi
12:15 AM62 °FClear.No wind74%30.08 "Hg10 mi
11:55 PM
Wed, May 27
63 °FClear.No wind71%30.08 "Hg10 mi
11:35 PM64 °FClear.No wind70%30.08 "Hg10 mi
11:15 PM64 °FClear.No wind70%30.07 "Hg10 mi
Weather by CustomWeather, © 2015

See weather overviewHow to use our weather pages